STARLINK-5646 (55461 NORAD) Tracking and Keplerian Element Data

This shows tracking and keplerian element data for the satellite.

Feedback or suggestion? Click here.




ElementValue
Catalog55461
NameSTARLINK-5646
Epoch Orbit830
Epoch Day85.25001157
Epoch Year2023
RAAN76.7583
Inclination43.0005
Eccentricity0.0001085
Argument of Perigee271.0938
Mean Anonmoly141.323
Mean Motion15.48919631
Decay Rate-0.00039291
L11 55461U 23015N 23085.25001157 -.00039291 00000+0 -70780-3 0 9991
L22 55461 43.0005 76.7583 0001085 271.0938 141.3230 15.48919631 8307



Live tracking and technical data element details for STARLINK-5646 (NORAD 55461). STARLINK-5646 can be tracked NOW for your location showing map with azimuth and elevation plus other details from your city location.







IsCatalogInMostPopularTable: catalog: 55461, numindb: -1

Insert: records affected: 1


GetName: 55461 STARLINK-5646

Hit Count: inserted at: Tue, 28 Mar 2023 01:43:55 GMT